Regional Weather Roundup
Issued by NWS Jackson, KY

Home | Current Version | Previous Version | Text Only | Print | Product List | Glossary Off
Versions: 1 2 3 4 5 6 7 8 9 10 11 12 13 14 15 16 17 18 19 20 21 22 23 24 25 26 27 28 29 30 31 32 33 34 35 36 37 38 39 40 41 42 43 44 45 46 47 48 49 50

618
ASUS43 KJKL 051110
RWRJKL

EAST KENTUCKY HOURLY WEATHER ROUNDUP
NATIONAL WEATHER SERVICE JACKSON KY
600 AM EST FRI FEB 05 2016

NOTE: "FAIR" INDICATES FEW OR NO CLOUDS BELOW 12,000 FEET WITH
NO SIGNIFICANT WEATHER AND/OR OBSTRUCTIONS TO VISIBILITY.

* THESE REPORTS ARE NOT UNDER NWS QUALITY CONTROL AND MAY NOT
  REPORT WEATHER SUCH AS PRECIPITATION AND FOG.

KYZ079-080-083-085-087-088-110-112-115-119-120-051200
...EASTERN KENTUCKY...

CITY           SKY/WX    TMP DP  RH WIND       PRES   REMARKS
JACKSON        CLEAR     24  16  71 W3        30.36R
LONDON         CLEAR     23  17  78 NW3       30.38R
SOMERSET*      CLEAR     21  21 100 CALM      30.41F
MONTICELLO*    PTCLDY    17  15  92 N12       30.41S WCI   4
WILLIAMSBURG*  SUNNY     23  21  93 CALM      30.40R
MIDDLESBORO*   CLEAR     27  18  68 NW5       30.39R WCI  22
HARLAN APT*      N/A     27  18  69 CALM      30.35R
HAZARD APT*    SUNNY    N/A N/A N/A W3        30.37R
BLACK MTN*       N/A     14  14 100 VRB8        N/A  WCI   3
BIG SANDY*     SUNNY     26  17  71 NW5       30.36R WCI  20
MOREHEAD APT*  SUNNY     23  18  80 CALM      30.40R
$$

KYZ035-036-041-042-044-050-067-078-099-051200
...CENTRAL KENTUCKY...

CITY           SKY/WX    TMP DP  RH WIND       PRES   REMARKS
MT STERLING*   CLEAR     21  19  93 CALM      30.40R
DANVILLE*      PTCLDY    21  19  93 CALM      30.40S
RICHMOND*      PTCLDY    23  18  80 CALM      30.39R
LEXINGTON      CLEAR     20  16  84 S5        30.38R WCI  13
FRANKFORT      CLEAR     19  15  84 CALM      30.38S
$$

KYZ091>093-OHZ055-061-077-WVZ005-015-034-035-042-051200
...SOUTHERN OHIO/WEST VIRGINIA...

CITY           SKY/WX    TMP DP  RH WIND       PRES   REMARKS
COVINGTON      CLEAR     19  17  92 SW3       30.37S
COLUMBUS       CLEAR     21  14  74 CALM      30.36R
DAYTON         CLEAR     19  16  88 SW5       30.35S WCI  12
WILMINGTON     CLEAR     21  17  84 W5        30.35R WCI  15
HUNTINGTON       N/A     25  17  72 NW3       30.37R
CHARLESTON       N/A     27  18  69 NW6       30.34R WCI  20
PINEVILLE*       N/A     27  13  55 MISG      30.33R
BECKLEY          N/A     23  13  65 NW14G22   30.22R WCI  11
$$

VAZ002-007-008-TNZ017-027-036-066-071-051200
...SOUTHWEST VIRGINIA/EAST TENNESSEE...

CITY           SKY/WX    TMP DP  RH WIND       PRES   REMARKS
BRISTOL        CLEAR     27  15  61 NW6       30.32  WCI  20
KNOXVILLE      PTCLDY    29  19  66 W3        30.40R
OAK RIDGE      PTCLDY    31  16  54 NW5       30.42R WCI  26
CROSSVILLE     CLEAR     21  16  81 W3        30.36R
NASHVILLE      CLEAR     25  19  78 CALM      30.42R
$$

...KEY TO REMARKS...
VSB - VISIBILITY IN MILES
WCI - WIND CHILL INDEX
HX  - HEAT INDEX

$$




USA.gov is the U.S. government's official web portal to all federal, state and local government web resources and services.